Find Starlink 4047

NORAD ID: 53243 Int'l Des: 2022-086 Owner: SPXS Country: US Constellation: starlink operational
LEOCIRCULAR

Live Position

Loading 3D Globe...

About Starlink 4047

Description loading...

Upcoming Passes

Passes for default location (London). Set your location on the main map for personalized predictions.

Altitude History

Loading altitude history...

Two-Line Element Set

1 53243U 22086B 26121.27016459 .00000432 00000-0 45204-4 0 9999
2 53243 53.2190 327.7696 0001402 86.7904 273.3249 15.08839695209207
Epoch: May 1, 2026 • Age: 6 hours

Current Status

Altitude 558.4 km
Velocity 7.58 km/s
Sub-Earth Point -51.17°S, 168.95°E
Launch Date Jul 24, 2022
Age 3.7 years
Type internet

Technical Details

Classification Payload
Mass 297.00 kg
Dry Mass 275.00 kg
Total Mass 297.00 kg
Length 0.20 m
Diameter 2.80 m
Span 9.00 m
Shape Box + pan
Manufacturer SPXS
Bus Type Starlink
Phase Status In Orbit
Owner/State SPXS/US

Most Searched